ARIANE 3 DEB, 27026

Orbit data source: Space-Track

ARIANE 3 DEB, 27026 is space debris in HEO originally from a launch on Thu, 08 Sep 1988 UTC launched from the French Guiana (FRGUI). Debris objects in space refer to the collection of defunct objects orbiting the Earth. Examples of debris include non-operational satellites, rocket bodies, and fragments generated from explosions, collisions, or faulty payload assembly.

Loading next visibility...
Identifier
27026, 1988-081J
Orbit
HEO
Country
Flag of FRFR
Related business
Manufacturer
Unknown
Mission
Spacecraft
Bus & Motor
Unknown
Mass
Unknown
Launch date (UTC)
1988-09-08 (37 years ago)
Launch vehicle
Unknown
Launch site
French Guiana (FRGUI)
Object type
Payload
Rocket body
Debris
Shape & HBR
Unknown shape, 1.1 m
Radar Cross Section
Medium (>0.1 m² and <1 m²)

Expand to show TLE details & history
Last TLE update: 1 day ago

TLE from 1 day ago
0 ARIANE 3 DEB
1 27026U 88081J   25286.53877167  .00000284  00000-0  53082-2 0  9993
2 27026   7.6583 283.6649 7091875  79.1117  14.7087  2.35524207260587
Epoch: 2025-10-13T12:55Z
TLE epoch observation values (Epoch: 2025-10-13T12:55:49.872Z)
Latitude
1.99579°
Longitude
-127.85069°
Altitude
4,829.763 km
Speed
7.377 km/s
True Right ascension
05h 53m 47s
True Declination
1° 59' 18"
Sunlit
Object was in daylight at epoch
Visualization orbit readout
Latitude
Unknown
Longitude
Unknown
Altitude
Unknown
Speed
Unknown
Apparent Right ascension
Unknown
Apparent Declination
Unknown
Sunlit
N/A
Visualization observer readout
Local Sidereal Time
07:06:52
Azimuth
Unknown
Elevation
Unknown
Doppler factor
Unknown
Orbital elements
Apogee altitude
34,415.719 km
Perigee altitude
562.8 km
Semi-major axis
23,867.397 km
Eccentricity
0.70919
Inclination
7.6583°
RAAN
283.6649°
Arg. of periapsis
79.1117°
True anomaly
85.5595°
Mean anomaly
14.7087°
Eccentric anomaly
41.78348°
Mean motion
0.58862 °/min
Orbital period
611.6 mins
BSTAR
0.0053082
Loading maneuver chart data...
Computing Atmospheric mass density...
Loading historical data...
Loading historical data...
Loading historical data...
Loading historical data...
Loading historical data...
Loading historical data...
Loading historical data...

Documentation

Showing up to 5 results
|